Wind_Speed
25 26 19 20 12 28 35 36 42 45 48 37 39 40 44 42 42 40 36 39 25 17 15 25 23 22 20 19 18 18 16 18 18 15 13 11 10 13 11 12 15 14 11 13 15 17 14 10 6 10 17 20 28 34
24 24 20 15 10 24 35 49 43 49 38 47 44 44 45 41 45 41 37 33 36 32 18 17 11 14 16 15 17 20 14 9 15 12 13 10 12 9 12 13 15 18 19 13 13 13 11 19 27 27 29 28 33 27
23 23 21 14 10 14 26 31 40 39 42 44 39 34 29 31 30 31 28 27 27 28 24 22 17 19 15 12 15 19 21 15 16 19 15 14 12 12 14 16 16 15 15 16 15 19 19 21 26 23 29 30 13 12
23 22 21 17 14 21 30 38 39 40 39 37 37 31 27 25 28 29 27 20 30 20 17 15 15 27 13 13 16 17 20 21 20 20 18 19 14 13 15 16 16 15 13 16 22 25 23 22 20 19 25 16 13 15
22 22 22 20 19 19 28 33 34 36 38 36 34 32 30 27 26 23 18 9 26 19 7 13 19 16 29 27 22 21 16 20 20 23 27 25 24 21 24 24 26 21 24 22 23 21 22 24 25 25 17 14 19 19
27 23 22 23 21 20 21 28 30 32 32 31 30 30 28 26 25 23 22 16 10 8 24 17 17 13 21 31 28 19 16 26 23 25 24 25 25 24 21 33 25 23 25 27 26 26 27 24 25 23 18 17 19 19
26 28 26 24 25 26 23 23 24 28 29 28 28 28 25 23 21 20 18 15 15 13 21 15 13 19 13 13 18 21 23 25 23 29 31 30 21 23 34 45 28 26 28 28 30 29 26 22 26 21 17 21 20 19
23 24 26 28 27 26 28 30 30 30 30 29 29 27 25 23 23 23 23 21 16 17 24 14 11 15 17 19 18 12 14 19 31 31 30 32 29 27 37 40 37 32 29 26 22 21 19 20 22 23 24 22 19 18
26 26 25 25 28 31 30 29 30 31 29 28 26 26 26 26 26 26 24 21 19 19 22 19 17 16 16 12 15 21 22 18 22 30 30 27 32 32 47 38 27 24 22 16 22 21 19 17 17 19 20 20 18 16
28 28 28 28 27 28 33 32 31 31 30 31 31 32 31 29 27 25 19 20 16 26 26 28 22 21 14 12 13 16 20 18 14 21 15 30 43 45 42 29 26 22 21 25 26 23 19 19 18 16 16 17 18 16
30 30 30 29 29 30 32 35 34 34 34 34 31 28 27 24 24 26 17 25 19 21 38 25 20 19 18 14 14 14 13 8 9 14 19 16 26 28 20 19 16 18 22 25 26 23 24 19 18 18 18 18 17 14
37 37 34 33 32 32 34 36 39 40 37 31 29 33 27 27 19 17 15 15 13 16 17 29 27 19 21 17 16 8 10 8 9 11 9 11 22 15 9 10 13 17 20 21 23 27 28 22 19 18 16 16 15 14
37 43 41 36 35 34 37 37 39 37 33 28 33 25 23 19 12 11 12 18 11 21 19 18 21 26 23 21 19 9 7 12 13 10 10 25 23 19 17 18 18 17 18 19 20 22 20 17 16 14 12 12 12 12
45 42 46 42 39 39 37 37 38 40 35 27 21 18 11 13 8 8 15 23 22 13 17 18 17 13 19 21 14 9 11 9 6 7 15 23 19 18 17 15 13 13 13 14 14 14 14 14 12 11 11 10 10 11
42 43 43 47 42 39 37 38 38 37 25 16 10 11 17 16 16 18 17 16 26 23 18 13 18 16 17 11 12 10 6 8 9 14 17 10 12 16 15 12 9 9 9 10 11 11 10 11 11 10 10 10 9 10
45 41 41 45 46 40 39 38 38 36 19 14 10 11 18 22 20 20 22 20 17 22 19 23 11 9 11 10 11 16 11 9 10 9 10 16 21 21 14 9 9 9 9 8 8 10 11 11 10 9 9 8 9 10
42 42 45 46 46 43 40 38 37 31 13 7 7 12 17 16 26 18 23 23 22 23 30 20 11 10 8 10 17 18 25 21 18 18 17 21 22 17 9 9 9 7 8 9 10 9 9 8 8 7 6 7 9 10
36 42 45 47 47 43 38 34 32 17 15 22 17 6 18 21 20 17 19 23 25 30 32 26 14 16 10 11 17 22 24 27 31 26 24 24 22 14 11 10 9 9 9 9 8 8 7 6 6 6 7 8 9 10
41 45 48 48 46 39 38 33 28 10 20 13 12 3 18 20 15 19 22 22 19 18 27 30 13 21 26 22 19 19 20 21 20 20 21 19 15 14 13 13 12 11 11 10 8 8 7 7 7 8 8 9 9 10
31 36 39 41 31 30 23 15 36 12 7 11 11 10 13 17 20 23 25 23 19 21 27 28 32 8 6 11 18 18 19 18 17 16 16 14 15 15 14 14 13 12 11 10 10 9 9 10 10 10 10 10 10 11
23 25 30 33 35 30 6 7 22 15 16 13 11 9 8 8 10 16 20 19 21 32 32 30 24 23 18 16 15 11 13 14 11 9 10 12 13 13 13 14 13 12 11 12 12 11 11 10 10 10 11 11 12 12
14 17 19 23 33 26 18 9 10 13 14 14 19 18 17 15 15 23 25 28 31 28 26 22 16 7 11 12 7 5 5 7 7 11 13 12 13 12 12 12 12 12 13 13 13 12 12 11 11 11 11 12 13 14
8 12 22 24 25 14 9 14 14 14 8 18 20 16 21 24 25 25 16 17 13 11 11 11 9 11 13 9 7 6 6 6 7 9 11 11 11 12 12 12 12 13 13 13 13 13 13 13 12 12 13 14 15 15
11 16 14 11 12 11 11 14 11 12 9 20 22 20 20 20 22 21 20 18 16 12 12 13 13 13 10 9 7 7 7 7 8 9 10 11 11 11 11 12 13 13 14 14 14 14 14 14 14 14 15 15 15 15
14 13 11 15 16 15 17 18 18 17 12 15 15 14 16 21 15 14 15 20 18 15 15 14 14 12 11 9 8 8 7 8 8 9 9 10 11 11 12 13 13 14 14 14 14 14 14 14 15 15 15 15 15 15
12 9 9 9 12 12 12 16 17 17 13 14 13 13 14 15 13 8 15 14 13 15 17 17 15 14 12 11 10 10 11 11 12 12 12 13 13 13 13 13 13 13 13 13 13 13 14 15 15 15 15 15 15 15
10 9 11 12 12 11 13 15 14 16 15 12 15 14 12 8 8 13 16 16 17 16 16 17 16 16 15 14 13 13 12 12 12 12 11 10 10 10 10 10 10 11 11 12 12 12 13 13 14 14 14 15 15 14
7 9 9 9 11 11 12 15 16 15 16 14 14 13 8 9 10 12 12 14 16 18 19 18 17 17 16 17 16 15 14 13 12 11 11 10 9 8 8 7 7 8 9 10 11 12 13 14 14 14 14 14 14 14
7 8 7 8 8 9 11 13 11 12 11 12 14 15 12 12 11 9 8 10 11 13 15 17 17 17 16 15 14 14 14 13 13 12 10 9 7 7 6 6 7 8 10 11 12 13 14 15 15 14 14 14 13 12
4 4 4 5 7 7 8 8 8 9 10 10 12 13 13 12 11 11 11 10 11 11 12 13 13 13 13 13 12 12 11 12 11 11 10 9 8 8 9 10 11 11 12 12 14 15 15 15 15 14 13 12 11 10
3 3 4 4 5 5 5 5 5 6 6 7 8 8 8 8 8 9 9 9 9 9 10 10 11 11 12 12 12 12 12 12 11 12 12 11 11 12 12 13 13 14 15 16 15 15 15 14 14 13 11 10 10 10
4 5 5 6 6 6 6 6 6 7 7 8 8 9 9 9 10 10 9 9 9 10 10 11 11 10 10 10 11 11 12 13 13 14 14 15 15 15 16 16 17 17 17 16 15 15 14 13 13 11 10 9 9 10
2 2 3 4 5 6 6 6 6 7 9 9 10 12 13 13 14 12 10 11 11 12 13 14 15 15 16 16 16 17 17 18 18 19 19 19 19 19 19 19 19 18 17 16 15 14 13 12 11 10 9 9 9 9
Wind_Direction
230 233 237 248 234 200 209 207 200 206 207 208 201 199 199 193 202 202 203 211 191 173 184 211 218 213 209 212 222 221 215 217 213 205 212 226 228 226 230 224 214 213 222 224 242 249 268 267 281 283 287 282 290 299
221 225 226 243 223 182 192 192 199 207 202 200 192 197 203 193 199 199 207 207 217 224 227 221 190 194 186 193 205 210 204 216 211 197 216 218 226 222 226 233 228 236 224 246 240 248 267 265 286 294 295 293 291 298
217 219 217 211 174 143 190 187 193 195 192 180 176 173 173 177 182 190 202 207 209 226 236 236 230 224 224 230 209 202 209 207 211 210 214 223 228 223 230 237 235 237 240 254 268 269 289 284 288 292 294 299 298 308
210 208 208 194 184 142 155 158 155 157 164 170 174 171 176 181 194 205 205 209 202 209 226 234 241 230 229 213 215 217 217 219 219 215 229 238 245 254 242 245 243 237 248 258 275 285 302 295 289 283 294 279 296 290
203 199 199 191 197 163 152 155 152 150 151 157 162 167 172 174 184 192 180 210 214 206 202 227 235 238 234 240 249 216 221 235 240 243 247 253 258 259 261 262 253 246 253 259 267 303 289 295 293 278 278 282 292 294
195 191 192 191 189 185 166 162 162 162 161 163 167 170 168 169 173 181 185 212 226 251 246 249 249 242 235 237 241 236 261 247 243 244 246 251 257 265 263 258 261 258 258 270 282 285 289 289 299 281 268 284 291 287
190 194 189 187 185 185 186 178 175 172 176 179 178 179 183 187 190 200 228 240 244 256 223 222 235 244 236 235 240 245 252 260 263 239 248 249 259 259 261 260 259 256 268 277 282 285 284 277 283 291 280 288 286 279
180 184 189 188 185 183 182 183 183 186 186 185 191 193 195 201 210 220 235 244 237 219 212 216 207 214 228 231 233 242 241 253 255 254 254 253 253 250 263 269 271 273 274 276 282 279 274 275 276 275 277 278 278 272
185 182 178 178 183 185 183 180 183 186 187 191 192 195 197 204 213 217 219 220 211 218 213 218 209 204 205 219 230 238 237 277 258 252 246 248 247 244 264 276 283 275 278 272 283 276 274 269 280 280 277 273 267 266
188 184 180 182 180 177 181 177 176 178 180 185 188 190 197 202 200 199 202 201 226 217 221 222 212 216 207 219 248 230 239 250 253 261 250 245 256 261 268 276 272 267 263 267 274 276 256 273 288 280 277 262 262 255
187 181 181 177 174 172 173 173 170 169 174 176 177 181 185 188 186 181 186 190 195 192 210 210 201 201 207 227 233 221 227 245 241 248 232 252 265 276 285 278 267 261 260 265 262 249 247 274 280 280 276 261 251 242
182 180 175 171 167 165 165 167 171 174 170 163 173 175 173 170 182 193 183 169 174 189 207 211 209 206 220 224 221 225 239 242 246 248 227 253 277 301 292 292 279 274 262 257 243 239 255 269 271 274 260 237 230 229
176 175 172 168 165 161 162 163 168 167 159 154 163 168 174 182 195 184 165 171 153 180 181 190 204 212 222 224 214 218 236 238 235 222 240 260 288 290 292 288 276 266 251 246 235 237 249 257 262 253 230 225 221 217
165 168 170 164 163 161 161 161 159 160 148 154 162 177 185 204 210 192 173 185 184 170 196 208 219 230 221 210 201 220 242 258 248 241 255 276 292 292 292 282 256 253 243 231 225 231 238 251 229 213 211 205 207 215
154 162 161 165 159 160 156 156 158 159 155 161 173 199 219 213 213 207 207 212 221 219 228 254 241 217 206 195 208 221 227 231 231 248 273 291 304 313 303 282 251 235 218 216 223 234 224 203 196 195 202 212 223 239
140 150 157 160 163 155 152 156 161 168 172 189 211 204 213 217 213 216 219 228 240 220 213 228 199 189 189 203 202 211 220 226 238 264 285 300 311 316 295 247 212 204 209 211 198 183 181 187 196 206 217 230 246 255
140 144 150 155 156 158 160 164 168 179 201 224 232 213 206 213 209 211 210 221 222 211 208 207 209 200 212 223 227 229 231 241 254 268 276 291 297 303 258 216 202 202 186 180 179 184 189 198 211 222 238 251 255 256
131 139 146 150 154 157 163 172 178 195 231 237 259 235 205 186 194 214 207 201 203 203 209 214 220 212 215 232 235 245 257 268 267 268 272 273 281 265 223 213 209 195 187 188 193 198 206 218 228 238 248 256 260 262
132 141 149 153 158 155 166 183 182 224 225 263 292 274 207 210 217 215 221 219 226 221 212 213 218 227 232 244 258 257 270 276 270 265 265 264 249 225 219 221 209 204 206 208 214 221 230 239 247 255 264 270 271 272
134 148 153 157 158 160 175 197 200 229 287 262 258 241 235 234 230 224 228 230 234 221 212 207 213 222 225 273 267 266 257 267 274 260 244 227 224 224 221 219 216 221 223 221 222 228 236 244 250 259 269 275 277 278
131 153 167 171 176 179 229 194 204 234 235 228 209 178 167 168 185 200 211 211 209 205 204 212 218 221 244 280 292 269 248 247 243 216 208 222 231 233 231 226 225 228 224 223 228 233 239 245 255 266 274 278 281 282
138 147 172 192 194 205 254 248 220 207 199 208 196 195 194 187 189 189 189 193 202 206 214 218 223 236 266 273 272 245 228 216 213 202 214 223 226 231 231 227 223 222 223 229 236 241 246 252 262 267 273 279 281 281
184 172 192 206 211 238 256 216 182 180 187 187 181 190 189 186 193 197 194 192 202 217 242 261 262 246 260 252 245 237 228 220 217 217 220 227 231 233 233 230 229 231 233 236 240 246 252 259 261 268 276 280 282 283
182 180 192 215 219 234 231 218 205 183 190 194 199 199 197 199 205 210 217 223 225 230 256 248 244 245 240 240 238 237 234 232 231 229 229 230 231 231 232 233 234 236 238 241 247 253 258 260 265 274 279 282 283 284
199 210 218 220 223 225 221 221 220 218 199 185 188 192 204 209 211 217 228 236 243 236 234 237 237 235 235 237 239 242 245 246 244 242 238 237 237 237 236 237 239 242 246 250 254 258 260 265 272 277 279 281 283 284
223 230 226 234 222 213 216 203 211 214 216 226 230 226 225 215 219 229 235 236 238 237 235 234 231 228 232 241 249 253 253 251 250 250 249 246 244 245 246 247 249 251 254 256 259 262 267 271 274 277 280 283 284 284
226 227 223 219 205 210 204 205 205 201 203 210 218 213 213 219 233 240 243 240 232 233 231 230 230 234 240 247 254 256 256 253 250 249 247 243 242 244 246 248 252 255 259 263 266 269 271 273 275 279 281 283 283 282
216 197 187 191 192 197 200 199 207 212 221 229 223 210 211 214 233 245 237 235 233 232 233 235 239 243 248 256 259 256 253 249 244 242 244 247 249 250 252 255 259 263 266 269 272 276 278 280 281 282 282 281 279 276
141 154 164 178 184 192 199 201 210 216 218 215 211 212 223 229 235 235 233 231 230 231 233 237 243 250 254 256 257 254 250 245 245 246 244 239 236 235 241 255 269 279 282 284 285 286 286 286 285 282 279 275 274 272
134 162 184 198 208 219 224 227 235 235 227 224 227 231 236 241 245 246 246 244 242 241 241 242 245 249 251 250 251 249 243 238 237 232 226 223 223 240 263 276 280 281 283 287 288 286 284 281 276 272 271 269 268 266
210 216 219 224 236 232 228 226 225 222 223 225 228 230 236 237 237 238 239 241 243 245 246 247 248 249 249 248 246 241 235 229 223 224 225 234 255 269 275 279 284 286 287 287 285 282 279 275 272 268 265 262 261 267
267 262 252 244 238 235 237 238 241 240 241 243 243 241 240 244 248 248 248 248 248 251 254 255 255 253 251 246 239 233 230 230 233 241 251 260 268 274 279 282 283 282 282 281 280 277 273 270 266 261 254 255 263 270
289 276 253 234 232 236 242 254 259 261 253 252 250 250 253 256 259 260 250 250 250 252 256 257 256 255 252 251 250 249 250 252 255 258 263 267 270 273 276 276 276 275 275 274 273 271 269 265 256 248 249 258 265 267
Height
2840 2843 2846 2847 2847 2848 2859 2864 2878 2890 2902 2912 2921 2930 2938 2946 2954 2963 2971 2979 2983 2988 2992 2998 3003 3008 3012 3016 3021 3025 3030 3029 3033 3036 3038 3039 3039 3039 3040 3041 3042 3043 3044 3044 3043 3042 3039 3034 3034 3035 3032 3027 3024 3022
2835 2839 2842 2844 2845 2849 2858 2863 2874 2886 2897 2906 2915 2925 2934 2941 2950 2960 2968 2973 2979 2986 2991 2996 3000 3005 3007 3012 3017 3020 3023 3024 3027 3031 3033 3034 3034 3034 3035 3035 3037 3039 3037 3037 3037 3035 3032 3031 3029 3027 3024 3021 3018 3014
2831 2835 2840 2842 2845 2849 2855 2861 2872 2883 2894 2904 2913 2922 2929 2939 2947 2958 2964 2971 2975 2981 2988 2993 2998 3002 3006 3009 3013 3017 3019 3021 3023 3025 3026 3027 3028 3028 3029 3029 3031 3031 3031 3029 3030 3027 3026 3025 3023 3020 3017 3014 3013 3010
2828 2833 2837 2842 2846 2851 2856 2864 2872 2881 2891 2901 2910 2920 2928 2936 2945 2954 2960 2967 2974 2980 2985 2989 2991 2998 3003 3005 3009 3012 3015 3017 3019 3022 3022 3022 3023 3022 3023 3023 3024 3026 3024 3023 3021 3020 3019 3017 3015 3012 3010 3009 3008 3007
2825 2832 2837 2843 2848 2854 2861 2869 2876 2883 2892 2902 2910 2920 2928 2936 2943 2951 2958 2965 2972 2979 2981 2986 2990 2994 2997 3002 3005 3008 3011 3013 3015 3017 3016 3016 3016 3017 3015 3014 3011 3017 3016 3017 3014 3015 3013 3010 3008 3006 3004 3003 3002 3001
2823 2830 2836 2843 2850 2856 2862 2870 2879 2887 2895 2904 2913 2921 2928 2934 2941 2948 2956 2962 2967 2973 2979 2983 2986 2989 2992 2996 2999 3003 3006 3008 3009 3010 3010 3009 3010 3012 3007 3000 3006 3008 3008 3008 3007 3008 3005 3003 3002 2999 2998 2998 2997 2996
2822 2828 2836 2842 2849 2857 2864 2872 2880 2888 2896 2904 2912 2921 2928 2935 2941 2946 2952 2957 2963 2968 2974 2979 2981 2985 2989 2991 2993 2997 2999 3002 3004 3004 3002 3004 3004 3004 2994 2983 2999 3000 2999 3000 3000 2999 2997 2996 2995 2994 2993 2993 2992 2991
2822 2828 2835 2842 2849 2857 2864 2872 2880 2888 2896 2904 2912 2920 2927 2932 2938 2944 2948 2954 2960 2964 2970 2975 2977 2982 2985 2988 2991 2993 2994 2996 2995 2995 2996 2996 2998 2995 2981 2980 2987 2990 2992 2992 2993 2991 2989 2989 2988 2987 2987 2987 2987 2986
2822 2829 2835 2842 2850 2857 2865 2871 2879 2888 2895 2903 2911 2918 2923 2929 2935 2941 2947 2951 2957 2964 2965 2968 2972 2978 2981 2984 2986 2989 2991 2989 2989 2985 2986 2989 2985 2978 2971 2977 2981 2983 2984 2985 2984 2984 2983 2983 2982 2981 2981 2981 2981 2981
2820 2828 2835 2842 2849 2856 2864 2872 2879 2886 2894 2901 2909 2915 2919 2926 2935 2942 2945 2949 2954 2954 2960 2963 2968 2974 2978 2980 2982 2985 2985 2986 2982 2979 2980 2974 2966 2968 2969 2971 2972 2974 2976 2976 2976 2977 2977 2978 2977 2976 2975 2975 2975 2975
2818 2826 2833 2841 2848 2855 2862 2871 2879 2886 2893 2900 2906 2913 2920 2927 2933 2937 2940 2944 2945 2948 2951 2957 2964 2968 2973 2976 2977 2979 2980 2978 2975 2973 2971 2965 2958 2960 2963 2963 2965 2966 2966 2966 2967 2969 2970 2972 2971 2971 2970 2969 2970 2971
2814 2823 2832 2841 2849 2856 2863 2871 2878 2884 2892 2902 2906 2914 2920 2926 2930 2932 2931 2934 2937 2944 2947 2954 2961 2966 2967 2970 2973 2974 2975 2974 2968 2966 2965 2958 2955 2957 2957 2957 2958 2958 2957 2957 2958 2962 2964 2965 2965 2965 2964 2964 2965 2967
2811 2821 2832 2842 2851 2859 2866 2873 2881 2889 2898 2902 2910 2915 2917 2921 2922 2922 2923 2929 2934 2939 2946 2951 2955 2959 2962 2966 2969 2970 2969 2965 2962 2960 2955 2951 2953 2953 2952 2951 2951 2950 2950 2951 2953 2956 2958 2959 2960 2960 2960 2962 2963 2964
2811 2822 2833 2845 2855 2863 2870 2878 2887 2895 2902 2906 2911 2913 2915 2916 2916 2918 2924 2931 2936 2940 2945 2950 2953 2955 2957 2960 2964 2964 2963 2960 2957 2953 2949 2949 2949 2948 2946 2945 2945 2945 2946 2947 2949 2951 2953 2954 2955 2957 2958 2959 2961 2962
2817 2828 2839 2851 2860 2869 2877 2885 2892 2899 2904 2909 2912 2913 2913 2915 2918 2924 2928 2932 2937 2941 2945 2948 2948 2952 2954 2957 2958 2959 2956 2952 2948 2947 2946 2946 2946 2944 2941 2940 2940 2940 2942 2944 2945 2947 2949 2951 2953 2955 2956 2958 2959 2960
2829 2838 2847 2856 2866 2876 2884 2891 2897 2903 2907 2909 2908 2907 2910 2914 2918 2922 2925 2929 2933 2937 2942 2946 2945 2946 2947 2949 2948 2947 2946 2943 2943 2944 2944 2943 2942 2940 2938 2937 2937 2939 2941 2942 2943 2945 2947 2949 2951 2953 2954 2955 2956 2956
2841 2845 2854 2864 2874 2883 2890 2897 2902 2905 2906 2905 2904 2905 2906 2909 2916 2918 2921 2926 2930 2933 2936 2941 2941 2942 2943 2942 2940 2938 2936 2939 2940 2941 2940 2940 2939 2937 2936 2936 2937 2938 2940 2941 2943 2945 2946 2948 2950 2950 2951 2952 2953 2953
2856 2859 2865 2873 2880 2889 2897 2902 2905 2906 2905 2904 2903 2905 2905 2907 2911 2914 2917 2922 2924 2927 2932 2936 2938 2937 2936 2933 2932 2933 2935 2936 2935 2935 2935 2935 2935 2934 2934 2935 2937 2938 2939 2941 2942 2944 2945 2946 2947 2948 2949 2949 2949 2949
2867 2869 2875 2881 2886 2892 2898 2902 2904 2904 2903 2903 2903 2904 2906 2908 2911 2912 2914 2918 2922 2925 2928 2930 2933 2930 2930 2931 2931 2931 2930 2930 2929 2929 2930 2930 2930 2931 2932 2934 2935 2937 2938 2939 2941 2942 2943 2944 2945 2946 2946 2946 2946 2945
2881 2884 2887 2892 2896 2899 2902 2903 2904 2902 2902 2902 2902 2903 2904 2906 2908 2909 2911 2915 2918 2920 2923 2923 2924 2926 2927 2927 2926 2925 2925 2925 2924 2924 2925 2926 2927 2929 2930 2932 2933 2934 2936 2938 2939 2940 2941 2942 2942 2943 2942 2942 2942 2941
2890 2892 2895 2897 2899 2900 2901 2900 2900 2901 2900 2900 2900 2901 2901 2902 2903 2905 2908 2911 2913 2914 2916 2918 2921 2924 2924 2924 2921 2919 2919 2920 2920 2921 2923 2925 2926 2927 2928 2930 2931 2932 2934 2935 2936 2937 2938 2939 2939 2939 2938 2938 2937 2937
2893 2895 2897 2898 2900 2901 2900 2898 2898 2897 2898 2897 2899 2900 2901 2902 2903 2905 2906 2909 2910 2912 2915 2918 2920 2921 2921 2920 2918 2918 2918 2918 2919 2920 2921 2923 2924 2925 2926 2927 2928 2929 2931 2932 2933 2934 2934 2934 2934 2934 2934 2934 2933 2932
2896 2897 2898 2900 2902 2901 2899 2896 2895 2895 2896 2897 2898 2900 2901 2902 2904 2906 2906 2908 2910 2911 2913 2914 2916 2917 2917 2917 2917 2917 2917 2917 2918 2918 2919 2920 2921 2922 2923 2924 2925 2926 2927 2928 2929 2930 2930 2930 2930 2930 2929 2929 2928 2927
2896 2898 2900 2900 2898 2896 2896 2895 2894 2894 2895 2896 2898 2899 2901 2902 2904 2905 2906 2907 2909 2910 2911 2912 2913 2914 2914 2915 2915 2915 2916 2916 2916 2917 2917 2918 2919 2920 2920 2921 2922 2923 2924 2925 2925 2925 2926 2925 2925 2925 2924 2924 2923 2922
2899 2898 2897 2894 2893 2893 2892 2892 2893 2894 2894 2895 2897 2898 2899 2901 2903 2903 2904 2906 2907 2908 2909 2909 2910 2911 2912 2913 2913 2913 2914 2914 2914 2915 2915 2916 2916 2917 2917 2918 2919 2919 2920 2920 2921 2921 2921 2921 2921 2920 2919 2918 2917 2916
2893 2891 2890 2887 2887 2888 2887 2889 2890 2891 2893 2894 2896 2897 2898 2900 2901 2901 2901 2902 2903 2904 2905 2906 2907 2908 2909 2910 2910 2911 2911 2911 2911 2912 2912 2912 2913 2913 2914 2914 2915 2915 2915 2916 2916 2916 2916 2916 2915 2915 2914 2913 2912 2911
2888 2886 2885 2885 2885 2885 2886 2887 2889 2890 2891 2892 2893 2895 2897 2897 2897 2896 2897 2898 2899 2900 2901 2902 2903 2905 2906 2906 2907 2907 2907 2907 2908 2908 2908 2908 2909 2909 2910 2910 2911 2911 2911 2911 2911 2911 2911 2911 2910 2909 2908 2907 2906 2905
2884 2883 2884 2885 2885 2885 2885 2886 2887 2888 2889 2890 2891 2892 2893 2893 2893 2893 2893 2894 2895 2896 2897 2898 2899 2900 2901 2902 2902 2903 2903 2903 2904 2904 2905 2906 2906 2906 2907 2907 2907 2907 2907 2907 2907 2907 2906 2905 2905 2904 2903 2902 2901 2900
2883 2883 2884 2884 2885 2885 2886 2886 2887 2887 2887 2888 2888 2889 2890 2890 2890 2890 2891 2891 2892 2892 2893 2895 2896 2896 2897 2897 2898 2898 2899 2899 2901 2901 2902 2902 2903 2904 2904 2904 2904 2904 2904 2903 2903 2902 2901 2900 2899 2898 2897 2897 2896 2895
2884 2884 2884 2884 2884 2885 2885 2885 2885 2885 2886 2886 2886 2887 2887 2887 2887 2887 2888 2888 2888 2889 2890 2890 2891 2891 2892 2893 2893 2894 2894 2895 2896 2897 2898 2899 2900 2900 2900 2900 2900 2900 2899 2898 2897 2896 2896 2895 2894 2893 2892 2892 2891 2891
2883 2883 2883 2883 2883 2883 2883 2883 2883 2883 2883 2884 2884 2884 2884 2884 2884 2884 2884 2884 2885 2885 2885 2886 2886 2887 2887 2888 2889 2889 2890 2892 2892 2894 2894 2895 2896 2896 2896 2895 2895 2894 2894 2893 2892 2891 2890 2889 2888 2888 2887 2887 2887 2887
2882 2881 2881 2881 2882 2882 2882 2882 2882 2882 2882 2882 2882 2882 2882 2881 2881 2881 2881 2881 2881 2881 2882 2882 2882 2883 2883 2884 2885 2886 2887 2888 2888 2889 2890 2890 2890 2890 2890 2890 2889 2888 2888 2887 2886 2885 2885 2884 2883 2883 2883 2883 2883 2883
2880 2880 2879 2879 2879 2879 2880 2880 2879 2879 2878 2878 2878 2878 2878 2877 2877 2877 2877 2877 2877 2877 2877 2878 2878 2878 2879 2880 2880 2881 2882 2882 2883 2883 2884 2884 2884 2884 2884 2883 2883 2882 2882 2881 2881 2880 2880 2879 2879 2879 2879 2880 2880 2879